Flag for Germany Weather past 2 weeks in Calw, Baden-Württemberg, Germany

Now
60 °F

Overcast.


Feels Like: 61 °F
Forecast: 45 / 69 °F
Wind: 3 mph from Northwest

Location: Stuttgart-Echterdingen

Current Time: Aug 20, 2014 at 7:45:32 PM

Latest Report: Aug 20, 2014 at 7:00 PM


Visibility: 38 mi

Pressure: 30.01 "Hg

Humidity: 58%

Dew point: 45 °F

Location of CalwLocation

Historic Weather in Calw — Graph

°F

Calw temperature yesterday

Maximum temperature yesterday: 68 °F (at 6:00 PM)
Minimum temperature yesterday: 54 °F (at 4:00 AM)
Average temperature yesterday: 59 °F

Past Weeks' High & Low Weather Summary

 TemperatureHumidityPressure
High82 °F (Aug 10, 6:00 PM)100% (Aug 8, 8:00 AM)30.18 "Hg (Aug 8, 8:00 AM)
Low51 °F (Aug 20, 3:00 AM)43% (Aug 12, 3:00 PM)29.67 "Hg (Aug 13, 5:00 PM)
Average63 °F75%29.95 "Hg
* Reported Aug 5 6:00 PM — Aug 20 6:00 PM, Calw, Weather by CustomWeather, © 2014

Note: Actual official high and low records may vary slightly from our data, if they occured in-between our weather recording intervals... More about our weather records

Advertising

Calw weather history for previous 24 hours

 ConditionsComfort  
Time TempWeatherWind HumidityBarometerVisibility
6:00 PM
Aug 20
61 °FOvercast.5 mph56%30.01 "Hg37 mi
4:00 PM63 °FOvercast.2 mph51%30.00 "Hg37 mi
3:00 PM63 °FOvercast.2 mph49%30.01 "Hg37 mi
2:00 PM63 °FOvercast.2 mph56%30.01 "Hg37 mi
1:00 PM62 °FOvercast.1 mph56%30.03 "Hg37 mi
12:00 PM61 °FOvercast.1 mph65%30.03 "Hg31 mi
11:00 AM58 °FPartly sunny.1 mph67%30.05 "Hg31 mi
10:00 AM57 °FPartly sunny.2 mph74%30.06 "Hg28 mi
9:00 AM54 °FScattered clouds.1 mph80%30.06 "Hg22 mi
8:00 AM53 °FScattered clouds.1 mph85%30.06 "Hg22 mi
7:00 AM51 °FScattered clouds.2 mph85%30.06 "Hg37 mi
6:00 AM51 °FPassing clouds.3 mph85%30.06 "Hg37 mi
4:00 AM51 °FOvercast.2 mph87%30.03 "Hg34 mi
3:00 AM51 °FPassing clouds.2 mph87%30.03 "Hg37 mi
2:00 AM53 °FOvercast.2 mph84%30.03 "Hg37 mi
1:00 AM55 °FOvercast.2 mph76%30.03 "Hg37 mi
12:00 AM56 °FOvercast.2 mph71%30.01 "Hg40 mi
11:00 PM
Aug 19
57 °FPassing clouds.5 mph68%29.99 "Hg37 mi
10:00 PM56 °FPassing clouds.2 mph75%29.99 "Hg37 mi
9:00 PM59 °FPassing clouds.2 mph64%29.96 "Hg40 mi
8:00 PM63 °FPassing clouds.5 mph56%29.93 "Hg40 mi
7:00 PM64 °FPassing clouds.7 mph55%29.91 "Hg43 mi
Weather by CustomWeather, © 2014

See weather overviewHow to use our weather pages